Petersburg, AK

5:09 AM AKST on February 21, 2018 (GMT -0900)
Johnson Petersburg

Weather History for PAPG - November, 2011

Change the Weather History Date:

Sunday, November 27, 2011

  Actual Average Record
Temperature  
Mean Temperature 28 °F -  
Max Temperature 33 °F 36 °F 55 °F (2002)
Min Temperature 23 °F 29 °F -4 °F (1985)
Degree Days  
Heating Degree Days 37    
Moisture  
Dew Point 27 °F    
Average Humidity 92    
Maximum Humidity 100    
Minimum Humidity 80    
Precipitation  
Precipitation 0.00 in - - ()
Sea Level Pressure  
Sea Level Pressure 29.73 in    
Wind  
Wind Speed 4 mph (WSW)    
Max Wind Speed 7 mph    
Max Gust Speed -    
Visibility 8 miles    
Events      
Averages and records for this station are not official NWS values.
T = Trace of Precipitation, MM = Missing Value Source: NWS Daily Summary

Daily Weather History Graph

Daily Weather History Graph

Search for Another Location

Airport or City:

Trip Planner

Search our weather history database for the weather conditions in past years. The results will help you decide how hot, cold, wet, or windy it might be!

Date:

Astronomy

Nov. 27, 2011 Rise Set
Actual Time 7:56 AM AKST 3:22 PM AKST
Civil Twilight 7:10 AM AKST 4:08 PM AKST
Nautical Twilight 6:21 AM AKST 4:56 PM AKST
Astronomical Twilight 5:36 AM AKST 5:42 PM AKST
Moon 10:31 AM AKST (11/27) 6:06 PM AKST (11/27)
Length of Visible Light 8h 57m
Length of Day
7h 25m
Waxing Crescent, 9% of the Moon is Illuminated
Nov 27
Waxing Crescent
Dec 2
First Quarter
Dec 10
Full
Dec 17
Last Quarter
Dec 24
New

Hourly Weather History & Observations

Time (AKST) Temp. Windchill Dew Point Humidity Pressure Visibility Wind Dir Wind Speed Gust Speed Precip Events Conditions
12:16 AM 32.0 °F 25.6 °F 28.4 °F 87% 29.49 in 10.0 mi West 6.9 mph - N/A   Overcast
12:36 AM 32.0 °F 26.4 °F 28.4 °F 87% 29.50 in 10.0 mi WSW 5.8 mph - N/A   Overcast
12:56 AM 33.8 °F 29.6 °F 28.4 °F 81% 29.51 in 10.0 mi WSW 4.6 mph - N/A   Overcast
1:16 AM 32.0 °F 25.6 °F 26.6 °F 80% 29.52 in 10.0 mi WSW 6.9 mph - N/A   Mostly Cloudy
1:36 AM 32.0 °F 26.4 °F 26.6 °F 80% 29.53 in 10.0 mi WSW 5.8 mph - N/A   Mostly Cloudy
1:56 AM 30.2 °F 26.7 °F 28.4 °F 93% 29.54 in 10.0 mi SSW 3.5 mph - N/A   Scattered Clouds
2:16 AM 30.2 °F 24.3 °F 28.4 °F 93% 29.55 in 10.0 mi SSW 5.8 mph - N/A   Mostly Cloudy
2:36 AM 30.2 °F 23.4 °F 26.6 °F 86% 29.56 in 10.0 mi SW 6.9 mph - N/A   Mostly Cloudy
2:56 AM 30.2 °F 25.4 °F 26.6 °F 86% 29.56 in 10.0 mi SSW 4.6 mph - N/A   Mostly Cloudy
3:16 AM 30.2 °F 24.3 °F 26.6 °F 86% 29.57 in 10.0 mi WSW 5.8 mph - N/A   Scattered Clouds
3:36 AM 28.4 °F 24.6 °F 26.6 °F 93% 29.58 in 10.0 mi WSW 3.5 mph - N/A   Partly Cloudy
3:56 AM 30.2 °F 23.4 °F 28.4 °F 93% 29.59 in 10.0 mi WSW 6.9 mph - N/A   Mostly Cloudy
4:16 AM 28.4 °F 23.3 °F 26.6 °F 93% 29.59 in 10.0 mi WSW 4.6 mph - N/A   Overcast
4:36 AM 30.2 °F 25.4 °F 26.6 °F 86% 29.60 in 10.0 mi WSW 4.6 mph - N/A   Overcast
4:56 AM 30.2 °F 24.3 °F 28.4 °F 93% 29.61 in 10.0 mi West 5.8 mph - N/A   Overcast
5:16 AM 28.4 °F 22.2 °F 26.6 °F 93% 29.61 in 10.0 mi WSW 5.8 mph - N/A   Mostly Cloudy
5:36 AM 28.4 °F 22.2 °F 26.6 °F 93% 29.62 in 10.0 mi SW 5.8 mph - N/A   Mostly Cloudy
5:56 AM 28.4 °F 23.3 °F 26.6 °F 93% 29.63 in 10.0 mi WSW 4.6 mph - N/A   Scattered Clouds
6:16 AM 26.6 °F 21.2 °F 24.8 °F 93% 29.64 in 10.0 mi WSW 4.6 mph - N/A   Scattered Clouds
6:36 AM 28.4 °F 23.3 °F 26.6 °F 93% 29.65 in 10.0 mi West 4.6 mph - N/A   Scattered Clouds
6:56 AM 24.8 °F 16.9 °F 23.0 °F 93% 29.65 in 10.0 mi West 6.9 mph - N/A   Mostly Cloudy
7:16 AM 26.6 °F 20.0 °F 24.8 °F 93% 29.67 in 10.0 mi WSW 5.8 mph - N/A   Mostly Cloudy
7:36 AM 28.4 °F 22.2 °F 26.6 °F 93% 29.67 in 10.0 mi WSW 5.8 mph - N/A   Mostly Cloudy
7:56 AM 28.4 °F 23.3 °F 26.6 °F 93% 29.68 in 10.0 mi WSW 4.6 mph - N/A   Scattered Clouds
8:16 AM 24.8 °F 19.1 °F 23.0 °F 93% 29.69 in 10.0 mi SW 4.6 mph - N/A   Scattered Clouds
8:36 AM 26.6 °F 22.6 °F 23.0 °F 86% 29.70 in 10.0 mi SW 3.5 mph - N/A   Scattered Clouds
8:56 AM 23.0 °F 17.0 °F 21.2 °F 93% 29.71 in 10.0 mi West 4.6 mph - N/A   Scattered Clouds
9:16 AM 24.8 °F 20.5 °F 21.2 °F 86% 29.72 in 10.0 mi WSW 3.5 mph - N/A   Scattered Clouds
9:36 AM 26.6 °F 21.2 °F 24.8 °F 93% 29.74 in 10.0 mi West 4.6 mph - N/A   Scattered Clouds
9:56 AM 26.6 °F 22.6 °F 26.6 °F 100% 29.75 in 10.0 mi West 3.5 mph - N/A   Mostly Cloudy
10:16 AM 28.4 °F 24.6 °F 26.6 °F 93% 29.76 in 10.0 mi West 3.5 mph - N/A   Mostly Cloudy
10:36 AM 28.4 °F 24.6 °F 26.6 °F 93% 29.77 in 10.0 mi West 3.5 mph - N/A   Mostly Cloudy
10:56 AM 28.4 °F 24.6 °F 26.6 °F 93% 29.78 in 10.0 mi West 3.5 mph - N/A   Mostly Cloudy
11:16 AM 28.4 °F 24.6 °F 26.6 °F 93% 29.79 in 10.0 mi West 3.5 mph - N/A   Mostly Cloudy
11:36 AM 30.2 °F - 28.4 °F 93% 29.80 in 10.0 mi Calm Calm - N/A   Mostly Cloudy
11:56 AM 30.2 °F - 26.6 °F 86% 29.81 in 10.0 mi Calm Calm - N/A   Mostly Cloudy
12:16 PM 30.2 °F - 28.4 °F 93% 29.82 in 10.0 mi Calm Calm - N/A   Mostly Cloudy
12:36 PM 30.2 °F - 28.4 °F 93% 29.83 in 10.0 mi Calm Calm - N/A   Mostly Cloudy
12:56 PM 32.0 °F - 28.4 °F 87% 29.84 in 5.0 mi Calm Calm - N/A   Mostly Cloudy
1:16 PM 30.2 °F - 28.4 °F 93% 29.85 in 5.0 mi Calm Calm - N/A   Mostly Cloudy
1:36 PM 32.0 °F - 30.2 °F 93% 29.85 in 2.0 mi Calm Calm - N/A   Overcast
1:56 PM 30.2 °F - 28.4 °F 93% 29.86 in 5.0 mi Calm Calm - N/A   Mostly Cloudy
2:16 PM 30.2 °F 23.4 °F 28.4 °F 93% 29.88 in 0.5 mi WSW 6.9 mph - N/A   Overcast
2:36 PM 32.0 °F 28.7 °F 30.2 °F 93% 29.88 in 5.0 mi East 3.5 mph - N/A   Mostly Cloudy
2:56 PM 30.2 °F 25.4 °F 30.2 °F 100% 29.89 in 5.0 mi East 4.6 mph - N/A   Mostly Cloudy
3:16 PM 30.2 °F - 28.4 °F 93% 29.90 in 5.0 mi Calm Calm - N/A   Mostly Cloudy
3:36 PM 28.4 °F 24.6 °F 28.4 °F 100% 29.90 in 5.0 mi WSW 3.5 mph - N/A   Mostly Cloudy
3:56 PM 30.2 °F - 28.4 °F 93% 29.91 in 7.0 mi Calm Calm - N/A   Scattered Clouds
4:16 PM 30.2 °F - 28.4 °F 93% 29.91 in 5.0 mi Calm Calm - N/A   Mostly Cloudy
4:36 PM 30.2 °F - 28.4 °F 93% 29.91 in 5.0 mi Calm Calm - N/A   Mostly Cloudy
4:56 PM 30.2 °F - 28.4 °F 93% 29.92 in 5.0 mi Calm Calm - N/A   Overcast
5:16 PM 30.2 °F - 28.4 °F 93% 29.92 in 5.0 mi Calm Calm - N/A   Overcast
5:36 PM 30.2 °F - 28.4 °F 93% 29.93 in 5.0 mi Calm Calm - N/A   Overcast
5:56 PM 30.2 °F - 30.2 °F 100% 29.93 in 4.0 mi Calm Calm - N/A   Overcast
6:16 PM 28.4 °F - 26.6 °F 93% 29.92 in 4.0 mi Calm Calm - N/A   Overcast
6:36 PM 30.2 °F 26.7 °F 28.4 °F 93% 29.92 in 4.0 mi WSW 3.5 mph - N/A   Overcast
6:56 PM 30.2 °F 25.4 °F 28.4 °F 93% 29.93 in 5.0 mi West 4.6 mph - N/A   Overcast
7:16 PM 30.2 °F 26.7 °F 28.4 °F 93% 29.93 in 5.0 mi South 3.5 mph - N/A   Overcast
7:36 PM 32.0 °F - 28.4 °F 87% 29.92 in 5.0 mi Calm Calm - N/A   Overcast
8:16 PM 32.0 °F - 28.4 °F 87% 29.92 in 3.0 mi Calm Calm - N/A   Overcast
8:36 PM 30.2 °F - 28.4 °F 93% 29.92 in 3.0 mi Calm Calm - N/A   Overcast
8:56 PM 32.0 °F - 30.2 °F 93% 29.91 in 2.5 mi Calm Calm - N/A   Overcast
9:16 PM 30.2 °F - 30.2 °F 100% 29.91 in 2.5 mi Calm Calm - N/A   Overcast
9:36 PM 32.0 °F - 30.2 °F 93% 29.91 in 2.5 mi Calm Calm - N/A   Overcast
9:56 PM 32.0 °F - 30.2 °F 93% 29.91 in 2.0 mi Calm Calm - N/A   Overcast
10:16 PM 32.0 °F 27.5 °F 30.2 °F 93% 29.90 in 1.8 mi East 4.6 mph - N/A   Overcast
10:36 PM 32.0 °F - 30.2 °F 93% 29.90 in 2.0 mi Calm Calm - N/A   Overcast
10:56 PM 33.8 °F 25.3 °F 30.2 °F 87% 29.88 in 1.8 mi East 11.5 mph 17.3 mph N/A   Overcast
11:16 PM 33.8 °F 27.7 °F 30.2 °F 87% 29.87 in 1.8 mi East 6.9 mph - N/A   Overcast
11:36 PM 33.8 °F 26.4 °F 30.2 °F 87% 29.86 in 2.0 mi East 9.2 mph - N/A   Overcast
11:56 PM 33.8 °F 28.6 °F 30.2 °F 87% 29.85 in 2.5 mi East 5.8 mph - N/A   Overcast